This demonstration page uses our WeatherBlox Daily Observations layout. Learn more.

Left ArrowRight Arrow

Hourly Observations for February 17, 2017

Temp ( °F °C ) Dew Point ( °F °C ) Humidity (%) Winds ( mph kmh ) Pressure ( in mb ) Visibility ( mi km ) Precip ( " mm )
12:53 am 00:53 Clear 43 6.1 31 -0.6 63 63 SE 9 15 29.81 1010 10 16 0.00 0.00
1:53 am 01:53 Clear 41 5 31 -0.6 67 67 SE 8 13 29.79 1009 10 16 0.00 0.00
2:53 am 02:53 Clear 39 3.9 31 -0.6 73 73 SE 8 13 29.76 1008 10 16 0.00 0.00
3:53 am 03:53 Clear 40 4.4 33 0.6 77 77 SE 6 9 29.74 1007 10 16 0.00 0.00
4:53 am 04:53 Clear 38 3.3 33 0.6 83 83 E 5 7 29.73 1007 10 16 0.00 0.00
5:53 am 05:53 Clear 36 2.2 33 0.6 89 89 SE 5 7 29.72 1007 10 16 0.00 0.00
6:53 am 06:53 Clear 35 1.7 32 0 89 89 S 7 11 29.74 1007 10 16 0.00 0.00
7:53 am 07:53 Sunny 37 2.8 30 -1.1 76 76 S 7 11 29.74 1007 10 16 0.00 0.00
8:53 am 08:53 Sunny 49 9.4 31 -0.6 50 50 S 5 7 29.73 1007 10 16 0.00 0.00
9:53 am 09:53 Sunny 58 14.4 27 -2.8 31 31 W 20 31 29.72 1006 10 16 0.00 0.00
10:53 am 10:53 Sunny 65 18.3 26 -3.3 23 23 WSW 18 30 29.70 1006 10 16 0.00 0.00
11:53 am 11:53 Sunny 70 21.1 25 -3.9 18 18 W 17 28 29.67 1005 10 16 0.00 0.00
12:53 pm 12:53 Sunny 72 22.2 24 -4.4 17 17 W 18 30 29.65 1004 10 16 0.00 0.00
1:53 pm 13:53 Mostly Sunny 73 22.8 24 -4.4 16 16 W 25 41 29.62 1003 10 16 0.00 0.00
2:53 pm 14:53 Sunny 73 22.8 24 -4.4 16 16 W 26 43 29.61 1003 10 16 0.00 0.00
3:53 pm 15:53 Sunny 73 22.8 25 -3.9 17 17 W 23 37 29.60 1002 10 16 0.00 0.00
4:53 pm 16:53 Sunny 70 21.1 25 -3.9 18 18 W 21 33 29.61 1003 10 16 0.00 0.00
5:53 pm 17:53 Sunny 69 20.6 24 -4.4 18 18 W 18 30 29.62 1003 10 16 0.00 0.00
6:53 pm 18:53 Clear 67 19.4 24 -4.4 20 20 W 15 24 29.64 1004 10 16 0.00 0.00
7:53 pm 19:53 Clear 65 18.3 25 -3.9 22 22 W 15 24 29.67 1005 10 16 0.00 0.00
8:53 pm 20:53 Partly Cloudy 62 16.7 24 -4.4 23 23 W 13 20 29.67 1005 10 16 0.00 0.00
9:53 pm 21:53 Clear 55 12.8 25 -3.9 31 31 SW 9 15 29.69 1006 10 16 0.00 0.00
10:53 pm 22:53 Clear 54 12.2 25 -3.9 33 33 SW 9 15 29.69 1005 10 16 0.00 0.00
11:53 pm 23:53 Clear 52 11.1 27 -2.8 38 38 WSW 8 13 29.68 1005 10 16 0.00 0.00

Powered by AerisWeather